EW9467 Weather Reports


Display with metric or nautical units.
time (UTC)temp
F
wind
direction
speed
MPH
gust
MPH
rain 1hr
in
rain 24hr
in
rain mn
in
humidity
%
barometer
mb
20260507140523 67 49 0.0 0.0 0.02 2.54 2.23 94 1009.3
20260507140023 67 48 0.0 0.0 0.04 2.54 2.23 94 1009.2
20260507135523 67 49 0.0 0.0 0.06 2.54 2.23 94 1009.3
20260507135023 67 49 0.0 0.0 0.06 2.53 2.22 94 1009.2
20260507134524 67 42 0.0 2.0 0.09 2.53 2.22 94 1009.1
20260507134022 67 41 0.0 2.0 0.11 2.53 2.22 93 1009.1
20260507133525 67 321 0.0 0.0 0.12 2.53 2.22 94 1009.1
20260507133023 67 321 0.0 0.0 0.12 2.53 2.22 94 1009.1
20260507132523 67 321 0.0 0.0 0.12 2.53 2.22 94 1009.1
20260507132023 68 321 0.0 0.0 0.12 2.53 2.22 93 1009.1
20260507131522 68 327 1.0 5.0 0.13 2.53 2.22 93 1009.1
20260507131022 69 327 1.0 6.0 0.12 2.52 2.22 93 1009.0
20260507130524 69 326 2.0 8.0 0.13 2.52 2.21 95 1008.9
20260507130023 69 281 2.0 8.0 0.14 2.50 2.20 95 1008.6
20260507125524 69 278 2.0 8.0 0.17 2.48 2.17 95 1008.6
20260507125023 69 279 2.0 7.0 0.25 2.47 2.17 95 1008.4
20260507124523 69 281 1.0 6.0 0.46 2.44 2.14 95 1008.4
20260507124022 69 291 1.0 6.0 0.67 2.42 2.11 95 1008.3
20260507123022 69 310 1.0 7.0 1.09 2.41 2.10 95 1008.0
20260507122523 69 315 1.0 7.0 1.30 2.41 2.10 95 1007.9
20260507122022 69 301 1.0 8.0 1.43 2.41 2.10 95 1007.8
20260507121524 69 319 1.0 8.0 1.46 2.40 2.09 95 1007.8
20260507121022 69 295 1.0 8.0 1.48 2.40 2.09 95 1007.9
20260507120523 69 286 2.0 8.0 1.48 2.39 2.08 95 1007.7
20260507120023 69 273 2.0 9.0 1.45 2.36 2.06 95 1007.4
20260507115023 69 283 4.0 15.0 1.32 2.22 1.91 94 1007.7
20260507114521 69 225 5.0 15.0 1.08 1.98 1.70 94 1007.9
20260507114020 69 214 4.0 13.0 0.85 1.75 1.44 94 1007.7
20260507113521 69 219 2.0 13.0 0.62 1.51 1.20 94 1007.4
20260507113020 69 217 3.0 9.0 0.43 1.32 1.03 94 1007.6
20260507112519 69 257 3.0 9.0 0.22 1.11 0.82 94 1007.6
20260507112018 69 229 2.0 8.0 0.09 0.98 0.68 94 1007.2
20260507111518 69 205 3.0 9.0 0.05 0.94 0.63 94 1007.2
20260507111019 69 229 2.0 9.0 0.03 0.92 0.62 94 1007.0
20260507110519 69 226 2.0 7.0 0.02 0.91 0.60 94 1007.1
20260507110018 69 209 2.0 8.0 0.02 0.91 0.60 94 1007.1
20260507105519 69 214 2.0 8.0 0.01 0.90 0.60 94 1007.1
20260507104518 69 237 2.0 10.0 0.01 0.90 0.59 94 1007.1
20260507104018 68 236 1.0 7.0 0.01 0.90 0.59 94 1007.2
20260507103519 68 222 1.0 7.0 0.00 0.89 0.58 94 1007.3
20260507103016 68 247 1.0 4.0 0.03 0.89 0.58 94 1007.4
20260507102516 68 232 2.0 6.0 0.04 0.89 0.58 94 1007.4
20260507102017 68 259 2.0 6.0 0.06 0.89 0.58 94 1007.6
20260507101516 68 232 2.0 6.0 0.07 0.89 0.58 94 1007.6
20260507100516 68 221 2.0 6.0 0.09 0.89 0.58 94 1007.2
20260507100016 68 215 1.0 5.0 0.14 0.89 0.58 94 1007.2
20260507095018 68 225 3.0 17.0 0.16 0.89 0.58 94 1007.3
20260507094516 68 214 2.0 17.0 0.17 0.89 0.58 94 1007.4
20260507094015 68 219 3.0 11.0 0.18 0.89 0.58 94 1007.1
20260507093514 68 211 3.0 11.0 0.18 0.89 0.58 94 1006.8
20260507093013 68 248 2.0 11.0 0.15 0.86 0.56 94 1006.9
20260507092515 68 173 2.0 9.0 0.14 0.85 0.54 94 1007.0
20260507092014 68 174 4.0 9.0 0.12 0.83 0.53 94 1007.3
20260507091514 68 202 4.0 11.0 0.11 0.82 0.51 94 1007.9
20260507091011 68 219 3.0 11.0 0.10 0.81 0.50 94 1007.8
20260507090513 68 214 1.0 10.0 0.09 0.80 0.49 94 1007.0
20260507090013 68 137 1.0 7.0 0.04 0.75 0.45 94 1008.0
20260507085512 68 285 1.0 5.0 0.02 0.73 0.42 94 1009.2
20260507085012 68 246 1.0 7.0 0.02 0.73 0.42 94 1008.7
20260507084511 68 227 1.0 7.0 0.01 0.72 0.41 94 1008.6
20260507084012 68 110 0.0 4.0 0.00 0.71 0.40 94 1008.3
20260507083512 68 216 0.0 0.0 0.01 0.71 0.40 94 1008.7
20260507083011 68 211 0.0 4.0 0.01 0.71 0.40 94 1008.8
20260507082512 68 167 0.0 4.0 0.01 0.71 0.40 94 1008.8
20260507082012 68 223 0.0 0.0 0.01 0.71 0.40 94 1008.7
20260507081511 68 223 0.0 0.0 0.01 0.71 0.40 94 1008.6
20260507081011 68 223 0.0 0.0 0.01 0.71 0.40 94 1008.7
20260507080509 68 223 0.0 0.0 0.01 0.71 0.40 94 1008.5
20260507075508 68 223 1.0 4.0 0.01 0.71 0.40 94 1008.5
20260507074507 68 253 1.0 6.0 0.01 0.71 0.40 94 1008.7
20260507074007 68 219 1.0 6.0 0.03 0.71 0.40 94 1008.8
20260507073009 68 238 2.0 7.0 0.06 0.70 0.39 94 1008.9
20260507072509 68 212 2.0 7.0 0.07 0.70 0.39 94 1008.8
20260507072008 68 199 3.0 7.0 0.07 0.70 0.39 94 1008.8
20260507071508 68 203 3.0 6.0 0.08 0.70 0.39 94 1008.7
20260507071007 68 195 2.0 7.0 0.09 0.70 0.39 94 1008.7
20260507070507 68 238 1.0 7.0 0.10 0.70 0.39 93 1008.6
20260507070012 68 218 2.0 6.0 0.10 0.70 0.39 93 1008.3
20260507065507 68 191 1.0 5.0 0.10 0.70 0.39 93 1008.6
20260507065008 68 254 1.0 5.0 0.11 0.70 0.39 93 1008.9
20260507064507 68 248 1.0 5.0 0.12 0.70 0.39 93 1008.6
20260507064008 68 111 1.0 6.0 0.11 0.68 0.37 93 1007.8
20260507063507 68 186 1.0 6.0 0.10 0.66 0.36 93 1008.5
20260507063006 68 222 1.0 5.0 0.10 0.64 0.34 93 1008.7
20260507062505 68 214 2.0 11.0 0.09 0.63 0.32 93 1008.6
20260507062005 68 209 2.0 11.0 0.11 0.63 0.32 93 1008.4
20260507061505 68 181 2.0 9.0 0.12 0.62 0.31 93 1008.1
20260507061005 68 148 3.0 9.0 0.14 0.61 0.30 93 1009.2
20260507060506 68 215 4.0 10.0 0.16 0.60 0.29 93 1009.7
20260507060006 68 213 3.0 10.0 0.18 0.60 0.29 93 1009.5
20260507055505 68 216 2.0 10.0 0.20 0.60 0.29 93 1009.5
20260507054506 69 215 3.0 8.0 0.22 0.58 0.27 93 1009.5
20260507054005 69 219 3.0 10.0 0.22 0.57 0.26 93 1009.5
20260507053004 69 213 2.0 9.0 0.21 0.54 0.23 93 1009.5
20260507052504 69 234 2.0 10.0 0.21 0.54 0.23 93 1009.3
20260507052003 69 223 3.0 12.0 0.20 0.52 0.21 93 1009.8
20260507051504 69 182 4.0 12.0 0.18 0.50 0.20 93 1010.5
20260507051003 69 218 5.0 16.0 0.15 0.47 0.16 93 1011.4
20260507050002 69 219 6.0 12.0 0.11 0.42 0.11 92 1011.2
20260507045502 69 257 5.0 11.0 0.09 0.40 0.09 92 1011.0
20260507045003 69 279 5.0 11.0 0.07 0.38 0.07 92 1010.7
20260507044503 69 218 4.0 11.0 0.06 0.36 0.05 92 1010.6
20260507044004 69 229 2.0 10.0 0.05 0.35 0.04 92 1010.4
20260507043004 69 242 4.0 8.0 0.03 0.33 0.02 92 1010.2
20260507042003 69 226 4.0 11.0 0.02 0.32 0.01 92 1010.3
20260507041003 69 259 3.0 8.0 0.02 0.32 0.01 92 1010.7
20260507040503 69 234 2.0 7.0 0.06 0.32 0.01 92 1011.0
20260507040003 69 264 2.0 6.0 0.14 0.31 0.00 92 1010.9
20260507035500 69 273 2.0 6.0 0.15 0.31 0.31 92 1010.8
20260507034501 70 130 0.0 0.0 0.14 0.30 0.30 91 1010.1
20260507034000 70 234 0.0 3.0 0.14 0.30 0.30 91 1010.3
20260507033000 70 217 0.0 4.0 0.18 0.30 0.30 91 1010.1
20260507032501 70 288 0.0 4.0 0.28 0.30 0.30 91 1010.2
20260507032001 70 225 1.0 4.0 0.28 0.30 0.30 91 1010.3
20260507031501 70 200 2.0 9.0 0.28 0.30 0.30 91 1010.0
20260507031001 70 241 2.0 9.0 0.28 0.30 0.30 90 1010.1
20260507030000 71 303 3.0 9.0 0.15 0.17 0.20 90 1011.3
20260507025501 71 288 3.0 12.0 0.14 0.16 0.16 90 1011.0
20260507025000 71 221 3.0 12.0 0.15 0.16 0.16 89 1011.2
20260507024500 71 200 2.0 9.0 0.15 0.16 0.16 89 1011.3
20260507023502 71 213 1.0 6.0 0.16 0.16 0.16 89 1011.2
20260507023000 72 207 1.0 6.0 0.12 0.12 0.12 88 1011.3
20260507022500 72 294 1.0 4.0 0.02 0.02 0.02 88 1012.2
20260507021458 72 220 0.0 3.0 0.02 0.02 0.02 87 1010.4
20260507020958 72 184 0.0 0.0 0.02 0.02 0.02 87 1010.1
20260507020456 72 202 0.0 1.0 0.02 0.02 0.02 87 1010.2
20260507015457 72 265 0.0 0.0 0.02 0.02 0.02 89 1010.2
20260507014955 72 264 0.0 0.0 0.01 0.01 0.01 89 1010.6
20260507014455 72 265 0.0 0.0 0.01 0.01 0.01 88 1010.6
20260507013955 72 265 0.0 0.0 0.00 0.00 0.00 88 1010.5
20260507013452 73 264 0.0 0.0 0.00 0.00 0.00 87 1010.4
20260507012452 74 265 0.0 0.0 0.00 0.00 0.00 84 1010.5
20260507011953 74 265 0.0 0.0 0.00 0.00 0.00 84 1010.4
20260507011450 74 265 0.0 0.0 0.00 0.00 0.00 82 1010.4
20260507010451 76 265 0.0 0.0 0.00 0.00 0.00 79 1010.7
20260507005951 76 264 0.0 0.0 0.00 0.00 0.00 75 1010.6
20260507005450 76 264 0.0 0.0 0.00 0.00 0.00 75 1010.3
20260507004950 77 265 0.0 0.0 0.00 0.00 0.00 73 1010.4
20260507004450 77 263 0.0 0.0 0.00 0.00 0.00 73 1010.4
20260507003951 77 264 0.0 3.0 0.00 0.00 0.00 72 1010.6
20260507003452 77 264 0.0 6.0 0.00 0.00 0.00 72 1010.6
20260507002951 77 229 0.0 6.0 0.00 0.00 0.00 72 1010.6
20260507002448 77 264 1.0 7.0 0.00 0.00 0.00 71 1010.6
20260507001948 77 210 2.0 10.0 0.00 0.00 0.00 71 1010.5
20260507001448 78 175 2.0 10.0 0.00 0.00 0.00 71 1010.3
20260507000948 78 240 1.0 9.0 0.00 0.00 0.00 71 1010.5
20260507000450 78 239 1.0 9.0 0.00 0.00 0.00 71 1010.3
20260506235948 78 238 2.0 9.0 0.00 0.00 0.00 71 1010.7
20260506235448 78 267 1.0 7.0 0.00 0.00 0.00 71 1010.6
20260506234948 78 213 1.0 7.0 0.00 0.00 0.00 71 1010.3
20260506234448 78 280 1.0 6.0 0.00 0.00 0.00 71 1010.2
20260506233948 78 252 1.0 6.0 0.00 0.00 0.00 71 1009.7
20260506233447 78 199 2.0 9.0 0.00 0.00 0.00 71 1009.8
20260506232947 78 248 1.0 9.0 0.00 0.00 0.00 70 1009.8
20260506232447 79 245 1.0 7.0 0.00 0.00 0.00 69 1009.8
20260506231946 79 213 2.0 9.0 0.00 0.00 0.00 69 1009.8
20260506231446 79 203 2.0 9.0 0.00 0.00 0.00 69 1010.2
20260506230946 79 257 1.0 6.0 0.00 0.00 0.00 69 1010.0
20260506230446 79 206 2.0 8.0 0.00 0.00 0.00 68 1009.8
20260506225946 79 231 3.0 12.0 0.00 0.00 0.00 68 1009.8
20260506225446 79 240 2.0 12.0 0.00 0.00 0.00 68 1010.1
20260506224946 79 255 2.0 6.0 0.00 0.00 0.00 68 1010.2
20260506224446 80 213 1.0 7.0 0.00 0.00 0.00 67 1010.1
20260506223944 80 235 2.0 7.0 0.00 0.00 0.00 67 1009.9
20260506223445 80 211 3.0 10.0 0.00 0.00 0.00 67 1009.8
20260506222943 80 229 2.0 10.0 0.00 0.00 0.00 66 1009.9
20260506222811 80 226 1.0 7.0 0.00 0.00 0.00 66 1010.1
20260506222735 80 220 1.0 7.0 0.00 0.00 0.00 66 1010.1
20260506222701 80 246 2.0 8.0 0.00 0.00 0.00 66 1010.0
20260506220943 80 243 4.0 12.0 0.00 0.00 0.00 66 1010.1
20260506220443 80 238 3.0 12.0 0.00 0.00 0.00 65 1010.0
20260506215944 80 261 3.0 9.0 0.00 0.00 0.00 65 1010.0
20260506215444 80 259 3.0 9.0 0.00 0.00 0.00 66 1010.0
20260506214943 81 244 2.0 8.0 0.00 0.00 0.00 65 1009.9
20260506214444 82 233 1.0 7.0 0.00 0.00 0.00 64 1009.9
20260506213945 81 234 1.0 8.0 0.00 0.00 0.00 66 1009.7
20260506213445 81 280 2.0 8.0 0.00 0.00 0.00 65 1009.9
20260506212944 80 242 2.0 8.0 0.00 0.00 0.00 67 1009.9
20260506212443 80 272 2.0 8.0 0.00 0.00 0.00 65 1010.0
20260506211443 81 205 1.0 8.0 0.00 0.00 0.00 64 1010.1
20260506210942 81 261 2.0 8.0 0.00 0.00 0.00 65 1010.2
20260506210441 82 242 2.0 14.0 0.00 0.00 0.00 64 1010.1
20260506205942 81 296 3.0 14.0 0.00 0.00 0.00 64 1010.2
20260506205443 81 269 2.0 10.0 0.00 0.00 0.00 64 1010.2
20260506204942 81 238 2.0 10.0 0.00 0.00 0.00 65 1010.3
20260506204442 81 258 2.0 10.0 0.00 0.00 0.00 65 1010.5
20260506203941 80 275 3.0 10.0 0.00 0.00 0.00 65 1010.7
20260506202942 81 273 2.0 8.0 0.00 0.00 0.00 65 1010.8
20260506202441 81 208 3.0 13.0 0.00 0.00 0.00 67 1010.9
20260506201941 80 225 3.0 13.0 0.00 0.00 0.00 66 1011.1
20260506201443 81 222 3.0 11.0 0.00 0.00 0.00 65 1011.1
20260506200941 80 240 2.0 10.0 0.00 0.00 0.00 65 1011.1
20260506195941 80 261 3.0 10.0 0.00 0.00 0.00 66 1011.4
20260506195443 80 297 3.0 10.0 0.00 0.00 0.00 66 1011.4
20260506194943 81 254 2.0 7.0 0.00 0.00 0.00 66 1011.6
20260506194441 80 220 2.0 9.0 0.00 0.00 0.00 65 1011.7
20260506193941 82 261 2.0 9.0 0.00 0.00 0.00 64 1011.9
20260506193441 82 186 3.0 11.0 0.00 0.00 0.00 64 1011.9
20260506192942 81 200 3.0 11.0 0.00 0.00 0.00 64 1011.9
20260506192441 81 300 2.0 8.0 0.00 0.00 0.00 65 1011.9
20260506191941 80 219 2.0 11.0 0.00 0.00 0.00 64 1012.2
20260506191441 80 230 3.0 11.0 0.00 0.00 0.00 66 1012.2
20260506185939 79 248 3.0 10.0 0.00 0.00 0.00 66 1012.5
20260506185439 78 227 2.0 10.0 0.00 0.00 0.00 68 1012.5
20260506184940 78 261 2.0 9.0 0.00 0.00 0.00 67 1012.6
20260506183941 80 252 2.0 10.0 0.00 0.00 0.00 63 1012.7
20260506183439 80 259 2.0 8.0 0.00 0.00 0.00 65 1012.7
20260506182940 80 207 2.0 8.0 0.00 0.00 0.00 66 1012.6
20260506182439 79 160 3.0 12.0 0.00 0.00 0.00 65 1012.5
20260506181938 79 229 4.0 12.0 0.00 0.00 0.00 65 1012.6
20260506181439 79 215 4.0 11.0 0.00 0.00 0.00 64 1012.7
20260506180939 79 281 4.0 13.0 0.00 0.00 0.00 63 1012.6
20260506180439 80 234 3.0 13.0 0.00 0.00 0.00 63 1012.6
20260506175439 80 240 3.0 12.0 0.00 0.00 0.00 62 1012.3
20260506174940 80 265 4.0 9.0 0.00 0.00 0.00 64 1012.3
20260506174439 80 267 3.0 9.0 0.00 0.00 0.00 63 1012.3
20260506173437 80 237 2.0 9.0 0.00 0.00 0.00 65 1012.4
20260506172935 79 288 2.0 7.0 0.00 0.00 0.00 65 1012.5
20260506172435 79 226 3.0 9.0 0.00 0.00 0.00 66 1012.6
20260506171934 79 198 3.0 9.0 0.00 0.00 0.00 65 1012.7
20260506171435 79 199 2.0 9.0 0.00 0.00 0.00 65 1012.6
20260506170933 79 256 2.0 5.0 0.00 0.00 0.00 65 1012.6
20260506170434 79 145 2.0 8.0 0.00 0.00 0.00 64 1012.8
20260506165932 78 224 2.0 8.0 0.00 0.00 0.00 65 1012.9
20260506165432 78 226 3.0 9.0 0.00 0.00 0.00 67 1012.9
20260506164931 77 217 3.0 9.0 0.00 0.00 0.00 66 1013.1
20260506164431 77 251 3.0 9.0 0.00 0.00 0.00 66 1013.2
20260506163929 77 269 3.0 9.0 0.00 0.00 0.00 66 1013.3
20260506163429 77 240 3.0 9.0 0.00 0.00 0.00 66 1013.4
20260506162428 76 207 4.0 11.0 0.00 0.00 0.00 68 1013.4
20260506161427 76 264 4.0 13.0 0.00 0.00 0.00 68 1013.6
20260506160927 75 265 4.0 12.0 0.00 0.00 0.00 71 1013.6
20260506160427 75 273 4.0 10.0 0.00 0.00 0.00 69 1013.7
20260506155926 75 230 3.0 9.0 0.00 0.00 0.00 70 1013.9
20260506155424 75 203 3.0 10.0 0.00 0.00 0.00 71 1014.0
20260506154425 74 295 2.0 10.0 0.00 0.00 0.00 73 1014.2
20260506153925 74 302 2.0 10.0 0.00 0.00 0.00 73 1014.1
20260506153425 74 296 3.0 9.0 0.00 0.00 0.00 72 1014.2
20260506152925 73 253 3.0 11.0 0.00 0.00 0.00 73 1014.1
20260506152425 73 242 3.0 14.0 0.00 0.00 0.00 72 1014.1
20260506151924 73 266 3.0 14.0 0.00 0.00 0.00 72 1014.1
20260506151425 73 300 4.0 13.0 0.00 0.00 0.00 71 1014.1
20260506150425 73 267 3.0 11.0 0.00 0.00 0.00 71 1014.0
20260506145926 73 270 3.0 12.0 0.00 0.00 0.00 72 1014.0
20260506145425 73 263 4.0 12.0 0.00 0.00 0.00 71 1014.0
20260506144924 73 203 4.0 10.0 0.00 0.00 0.00 72 1014.0
20260506144424 73 266 4.0 11.0 0.00 0.00 0.00 72 1013.9
20260506143924 72 218 3.0 11.0 0.00 0.00 0.00 73 1013.8
20260506142925 72 278 3.0 11.0 0.00 0.00 0.00 73 1013.7
20260506141925 72 222 5.0 16.0 0.00 0.00 0.00 72 1013.7
20260506141424 72 211 6.0 16.0 0.00 0.00 0.00 73 1013.7